Tracking 19245 objects as of 18-Aug-2018
HD Live streaming from Space Station
objects crossing your sky now

EKRAN 4

Track EKRAN 4 now!
EKRAN 4 is classified as:


NORAD ID: 11561
Int'l Code: 1979-087A
Perigee: 35,767.9 km
Apogee: 35,841.3 km
Inclination: 12.1 °
Period: 1,436.7 minutes
Semi major axis: 42175 km
RCS: 0.1995 m2 (medium)
Launch date: October 3, 1979
Source: Commonwealth of Independent States (former USSR) (CIS)
Launch site: TYURATAM MISSILE AND SPACE COMPLEX (TTMTR)
aabbcc
Your satellite tracking list
Your tracking list is empty




NASA's NSSDC Master Catalog

Two Line Element Set (TLE):
1 11561U 79087A   18228.88466907  .00000014  00000-0  00000+0 0  9998
2 11561  12.0819 317.8667 0008706 140.3876 246.6993  1.00232999104239
Source of the keplerian elements: AFSPC